#timestamp,LO_Frequency,Hit 
1504396815.8,286046995.1,N
1504396835.6,286046993.5,N
1504396855.5,286046990.6,N
1504396875.3,286046987.0,N
1504396895.1,286046987.6,N
1504396915.9,286046990.0,N
1504396935.7,286046986.2,N
1504396955.5,286046985.2,N
1504396975.4,286046979.1,N
1504396995.2,286046978.9,N
1504397015.0,286046979.0,N
1504397015.9,286046979.0,N
1504397035.8,286046981.2,N
1504397055.6,286046982.1,N
1504397075.4,286046987.8,N
1504397095.3,286046985.3,N
1504397115.1,286046980.8,N
1504397116.0,286046980.8,N
1504397135.8,286046981.8,N
1504397155.7,286046977.6,N
1504397175.5,286046975.7,N
1504397195.3,286046978.3,N
1504397215.1,286046974.2,N
1504397235.9,286046976.7,N
1504397255.7,286046976.1,N
1504397275.5,286046975.9,N
1504397295.4,286046974.9,P
1504397315.2,286046993.0,N
1504397335.0,286046990.8,N
1504397336.0,286046990.8,N
1504397355.8,286046991.4,N
1504397375.6,286046986.0,N
1504397395.4,286046985.1,N
1504397415.3,286046983.9,N
1504397435.1,286046984.0,P
1504397455.9,286046998.4,N
1504397475.7,286046999.1,N
1504397495.5,286047000.5,N
1504397515.3,286047001.1,N
1504397535.2,286047000.2,N
1504397555.0,286047005.7,N
1504397555.9,286047005.7,N
1504397575.7,286047002.0,N
1504397595.6,286047002.7,N
1504397615.4,286047000.8,N
1504397635.2,286047000.3,N
1504397655.1,286047000.7,N
1504397656.0,286047000.7,N
1504397675.8,286047000.1,N
1504397695.6,286047007.0,N
1504397715.5,286047009.4,N
1504397735.3,286047011.0,N
1504397755.1,286047015.2,N
1504397775.9,286047016.3,N
1504397795.7,286047012.6,N
1504397815.8,286047018.3,N
1504397835.6,286047019.7,N
1504397855.4,286047022.9,N
1504397875.2,286047022.1,N
1504397895.1,286047026.3,N
1504397896.0,286047026.3,N
1504397915.8,286047024.1,N
1504397935.6,286047024.9,N
1504397955.5,286047022.6,N
1504397975.3,286047025.9,N
1504397995.1,286047027.8,N
1504398015.9,286047030.2,N
1504398035.7,286047032.7,P
1504398055.5,286047019.9,N
1504398075.4,286047017.8,N
1504398095.2,286047013.2,N
1504398115.0,286047011.0,N
1504398115.9,286047011.0,N
1504398135.8,286047017.9,N
1504398155.6,286047018.8,N
1504398175.4,286047017.2,N
1504398195.3,286047015.6,N
1504398215.1,286047016.7,N
1504398235.8,286047016.7,P
1504398255.7,286046999.1,P
1504398275.5,286046997.3,N
1504398295.3,286046998.3,N
1504398315.2,286047002.0,N
1504398335.0,286047001.6,N
1504398335.9,286047001.6,N
1504398355.7,286047005.5,N
1504398375.6,286047002.4,N
1504398395.4,286046999.8,N
1504398415.2,286047000.7,N
1504398435.1,286046998.8,N
1504398436.0,286046998.8,N
1504398455.8,286046997.1,N
1504398475.6,286047002.5,N
1504398495.5,286047000.4,N
1504398515.3,286047003.2,N
1504398535.1,286047004.1,N
1504398555.9,286046998.5,N
1504398575.7,286047002.3,N
1504398595.5,286046998.5,N
1504398615.3,286047007.5,N
1504398635.2,286047004.7,N
1504398655.0,286047005.0,N
1504398655.9,286047005.0,N
1504398675.7,286047004.8,N
1504398695.6,286047003.2,N
1504398715.4,286047003.8,N
1504398735.2,286047004.1,N
1504398755.1,286047004.4,N
1504398756.0,286047004.4,N
1504398775.8,286046997.1,N
1504398795.6,286046993.8,N
1504398815.5,286046990.5,P
1504398835.3,286046991.2,N
1504398855.1,286046990.0,N
1504398875.9,286046981.0,P
1504398895.7,286046985.1,N
1504398915.5,286046979.2,P
1504398935.4,286046978.1,P
1504398955.2,286046990.1,P
1504398975.1,286046993.4,N
1504398976.0,286046993.4,N
1504398995.8,286046995.4,N
1504399015.6,286046992.4,N
1504399035.4,286046993.8,N
1504399055.3,286046997.1,N
1504399075.1,286046993.3,N
1504399095.8,286046992.2,N
1504399115.7,286046990.5,N
1504399135.5,286046989.4,N
1504399155.3,286046988.6,N
1504399175.2,286046993.2,N
1504399195.9,286046995.7,N
1504399215.7,286046995.4,N
1504399235.6,286046997.0,N
1504399255.4,286046999.0,N
1504399275.2,286046995.0,N
1504399295.1,286046997.9,N
1504399296.0,286046997.9,N
1504399315.8,286046995.7,N
1504399335.6,286046993.9,N
1504399355.5,286046993.1,N
1504399375.3,286046991.6,N
1504399395.1,286046990.3,N
1504399415.8,286046992.0,N
1504399435.7,286046990.6,N
1504399455.5,286046990.9,N
1504399475.3,286046991.1,N
1504399495.2,286046996.3,N
1504399515.9,286046995.4,N
1504399535.7,286046995.6,N
1504399555.6,286046993.3,N
1504399575.4,286046993.4,N
1504399595.2,286046996.4,N
1504399615.1,286046996.2,N
1504399616.0,286046996.2,N
1504399635.8,286047000.9,N
1504399655.6,286047001.0,N
1504399675.5,286047002.1,N
1504399695.3,286047003.5,N
1504399715.1,286047007.3,N
1504399735.8,286047005.3,N
1504399755.7,286047007.4,N
1504399775.5,286047007.8,N
1504399795.3,286047011.0,N
1504399815.2,286047012.7,N
1504399835.0,286047014.8,N
1504399835.9,286047014.8,N
1504399855.7,286047013.3,N
1504399875.6,286047013.1,N
1504399895.4,286047011.1,N
1504399915.2,286047015.6,N
1504399935.1,286047017.2,N
1504399936.0,286047017.2,N
1504399955.8,286047016.7,N
1504399975.6,286047018.1,N
1504399995.5,286047016.5,N
1504400015.3,286047017.9,N
1504400035.1,286047019.3,N
1504400055.9,286047019.3,N
1504400075.7,286047021.3,N
1504400095.5,286047021.4,N
1504400115.4,286047017.4,N
1504400135.2,286047021.0,N
1504400155.0,286047019.0,N
1504400155.9,286047019.0,N
1504400175.8,286047021.0,P
1504400195.6,286047008.6,N
1504400215.4,286047009.9,N
1504400235.3,286047010.8,N
1504400255.1,286047007.9,N
1504400275.8,286047008.7,N
1504400295.7,286047008.8,N
1504400315.5,286047010.5,N
1504400335.3,286047009.7,N
1504400355.2,286047010.7,N
1504400375.9,286047010.6,P
1504400395.7,286046997.6,P
